Simultaneous Nadir Overpasses (SNOs) Predictions

Prediction of SNOs between GOES-15 and METOP-C Satellite Orbit:

Table of predicted SNOs for the next 14.0 days since TLE Epoch: 11/25/2019
Index Date Time (GOES-15) GOES-15 Lat,Lon METOP-C Lat,Lon Distance(km) Time Diff (sec)
1 11/26/2019 06:09:33 0.21,-128.44 0.01,-129.43 111.82 80
2 11/27/2019 05:46:13 0.21,-128.43 1.08,-124.43 455.70 80
3 11/28/2019 18:07:44 -0.20,-128.40 -0.05,-128.99 67.63 80
4 11/29/2019 17:47:05 -0.20,-128.38 -1.18,-124.00 499.98 80
5 12/01/2019 06:06:04 0.19,-128.37 0.17,-128.59 24.71 80
6 12/03/2019 18:04:15 -0.18,-128.31 -0.21,-128.15 18.65 80
7 12/06/2019 05:59:54 0.17,-128.28 0.26,-127.74 61.16 80
8 12/07/2019 18:21:25 -0.16,-128.23 0.76,-132.30 463.79 80
9 12/08/2019 17:58:05 -0.16,-128.21 -0.38,-127.31 103.02 80




NCC Satellite Simultaneous Nadir Overpasses (SNOs) Prediction Service
